Weather History for Taunton, MA

Change the Weather History Date:

Wednesday, September 11, 2013

  Actual Average Record
Temperature  
Mean Temperature 81 °F -  
Max Temperature 93 °F 76 °F 97 °F (1983)
Min Temperature 69 °F 52 °F 36 °F (1975)
Cooling Degree Days 16    
Growing Degree Days 31 (Base 50)    
Moisture  
Dew Point 71 °F    
Average Humidity 80    
Maximum Humidity 96    
Minimum Humidity 54    
Precipitation  
Precipitation 0.00 in - - ()
Sea Level Pressure  
Sea Level Pressure 30.04 in    
Wind  
Wind Speed 5 mph (SSW)    
Max Wind Speed 10 mph    
Max Gust Speed 21 mph    
Visibility 6 miles    
Events      
Averages and records for this station are not official NWS values.
T = Trace of Precipitation, MM = Missing Value Source: NWS Daily Summary

Daily Weather History Graph

Daily Weather History Graph

Search for Another Location

Airport:

Trip Planner

Search our weather history database for the weather conditions in past years. The results will help you decide how hot, cold, wet, or windy it might be!

Date:

Astronomy

Sep. 11, 2013 Rise Set
Actual Time 6:20 AM EDT 7:00 PM EDT
Civil Twilight 5:52 AM EDT 7:28 PM EDT
Nautical Twilight 5:18 AM EDT 8:01 PM EDT
Astronomical Twilight 4:44 AM EDT 8:35 PM EDT
Moon 12:51 PM EDT (9/11) 10:47 PM EDT (9/11)
Length of Visible Light 13h 36m
Length of Day
12h 39m
Waxing Crescent, 38% of the Moon is Illuminated
Sep 11
Waxing Crescent
Sep 12
First Quarter
Sep 19
Full
Sep 26
Last Quarter
Oct 4
New

Hourly Weather History & Observations

Time (EDT) Temp. Heat Index Dew Point Humidity Pressure Visibility Wind Dir Wind Speed Gust Speed Precip Events Conditions
12:52 AM 72.0 °F - 69.1 °F 91% 30.09 in 6.0 mi SSW 6.9 mph - N/A   Overcast
1:52 AM 71.1 °F - 69.1 °F 93% 30.07 in 6.0 mi SSW 5.8 mph - N/A   Overcast
2:24 AM 71.1 °F - 69.1 °F 93% 30.07 in 5.0 mi SSW 4.6 mph - N/A   Scattered Clouds
2:52 AM 71.1 °F - 69.1 °F 93% 30.06 in 6.0 mi Variable 4.6 mph - N/A   Clear
3:52 AM 70.0 °F - 68.0 °F 93% 30.06 in 4.0 mi Calm Calm - N/A   Clear
4:52 AM 70.0 °F - 68.0 °F 93% 30.06 in 5.0 mi Calm Calm - N/A   Clear
5:52 AM 69.1 °F - 68.0 °F 96% 30.06 in 4.0 mi SE 3.5 mph - N/A   Clear
6:28 AM 69.1 °F - 68.0 °F 96% 30.07 in 2.0 mi Calm Calm - N/A   Clear
6:52 AM 70.0 °F - 68.0 °F 93% 30.07 in 2.5 mi Calm Calm - N/A   Clear
7:23 AM 71.1 °F - 69.1 °F 93% 30.07 in 3.0 mi Variable 3.5 mph - N/A   Clear
7:52 AM 73.9 °F - 70.0 °F 87% 30.08 in 5.0 mi South 5.8 mph - N/A   Clear
8:52 AM 77.0 °F - 70.0 °F 79% 30.08 in 6.0 mi SW 5.8 mph - N/A   Haze
9:52 AM 79.0 °F - 71.1 °F 77% 30.09 in 7.0 mi SSW 6.9 mph - N/A   Clear
10:52 AM 82.9 °F 88.8 °F 73.0 °F 72% 30.07 in 7.0 mi South 8.1 mph - N/A   Clear
11:52 AM 87.1 °F 95.4 °F 73.9 °F 65% 30.06 in 7.0 mi SW 4.6 mph - N/A   Clear
12:52 PM 89.1 °F 98.0 °F 73.9 °F 61% 30.04 in 7.0 mi SSW 6.9 mph - N/A   Clear
1:52 PM 91.9 °F 103.2 °F 75.0 °F 58% 30.02 in 7.0 mi WSW 8.1 mph - N/A   Clear
2:52 PM 93.0 °F 103.2 °F 73.9 °F 54% 30.00 in 9.0 mi South 8.1 mph - N/A   Clear
3:52 PM 91.0 °F 101.6 °F 75.0 °F 59% 29.99 in 7.0 mi SW 9.2 mph - N/A   Clear
4:52 PM 87.1 °F 95.4 °F 73.9 °F 65% 29.98 in 7.0 mi SSW 9.2 mph - N/A   Clear
5:52 PM 84.0 °F 90.2 °F 73.0 °F 69% 29.97 in 6.0 mi SSW 10.4 mph 20.7 mph N/A   Haze
6:52 PM 80.1 °F 83.6 °F 71.1 °F 74% 29.98 in 7.0 mi SSW 10.4 mph - N/A   Clear
7:52 PM 78.1 °F - 70.0 °F 76% 30.01 in 9.0 mi Variable 5.8 mph - N/A   Clear
8:52 PM 77.0 °F - 69.1 °F 76% 30.02 in 8.0 mi SSW 8.1 mph 17.3 mph N/A   Clear
9:52 PM 75.9 °F - 69.1 °F 79% 30.01 in 8.0 mi SW 8.1 mph - N/A   Clear
10:52 PM 73.9 °F - 69.1 °F 85% 30.01 in 7.0 mi Variable 6.9 mph - N/A   Clear
11:52 PM 73.9 °F - 69.1 °F 85% 29.99 in 7.0 mi SW 5.8 mph - N/A   Clear